FW4820 Weather Reports


Display with metric or nautical units.
time (UTC)temp
F
wind
direction
speed
MPH
gust
MPH
rain 1hr
in
rain 24hr
in
rain mn
in
humidity
%
barometer
mb
20260505055017 63 23 9.0 15.0 0.00 0.01 0.00 48 1007.4
20260505054017 64 23 7.0 14.0 0.01 0.01 0.00 48 1007.4
20260505053017 64 23 9.0 21.0 0.01 0.01 0.00 48 1007.0
20260505052057 64 23 6.0 10.0 0.01 0.01 0.00 51 1007.0
20260505051017 65 23 9.0 17.0 0.01 0.01 0.00 50 1006.3
20260505041036 71 23 7.0 13.0 0.00 0.00 0.00 46 1005.3
20260505040016 71 23 5.0 11.0 0.00 0.00 0.00 49 1005.3
20260505035016 71 23 6.0 15.0 0.00 0.00 0.00 51 1005.5
20260505034016 70 23 4.0 10.0 0.00 0.00 0.00 61 1005.2
20260505033016 68 338 3.0 7.0 0.00 0.00 0.00 73 1005.0
20260505032036 66 0.0 0.0 0.00 0.00 0.00 80 1004.2
20260505031016 65 0.0 0.0 0.00 0.00 0.00 81 1004.1
20260505030016 66 0.0 0.0 0.00 0.00 0.00 80 1004.0
20260505025016 66 0.0 0.0 0.00 0.00 0.00 79 1004.0
20260505024016 66 0.0 0.0 0.00 0.00 0.00 79 1003.7
20260505023036 66 0.0 0.0 0.00 0.00 0.00 78 1003.5
20260505022036 66 0.0 0.0 0.00 0.00 0.00 80 1003.5
20260505021016 66 0.0 0.0 0.00 0.00 0.00 78 1003.3
20260505020016 67 0.0 0.0 0.00 0.00 0.00 77 1003.2
20260505015016 67 0.0 0.0 0.00 0.00 0.00 75 1003.1
20260505014016 67 0.0 0.0 0.00 0.00 0.00 74 1002.8
20260505013016 68 0.0 0.0 0.00 0.00 0.00 73 1002.8
20260505012016 70 0.0 0.0 0.00 0.00 0.00 71 1002.8
20260505011016 71 0.0 0.0 0.00 0.00 0.00 70 1002.6
20260505010016 72 0.0 0.0 0.00 0.00 0.00 67 1002.5
20260505005016 73 0.0 0.0 0.00 0.00 0.00 65 1002.5
20260505004016 74 0.0 0.0 0.00 0.00 0.00 64 1002.4
20260505003016 75 0.0 0.0 0.00 0.00 0.00 61 1002.4
20260505002016 76 0.0 0.0 0.00 0.00 0.00 61 1002.4
20260505001016 77 0.0 0.0 0.00 0.00 0.00 62 1002.6
20260505000016 77 0.0 0.0 0.00 0.00 0.00 58 1002.6
20260504235036 78 0.0 0.0 0.00 0.00 0.00 61 1002.6
20260504234016 79 0.0 1.0 0.00 0.00 0.00 57 1002.6
20260504233015 80 0.0 1.0 0.00 0.00 0.00 56 1002.6
20260504232015 79 0.0 2.0 0.00 0.00 0.00 57 1002.6
20260504231037 80 248 1.0 2.0 0.00 0.00 0.00 55 1002.6
20260504230016 80 0.0 2.0 0.00 0.00 0.00 54 1002.7
20260504225016 81 0.0 1.0 0.00 0.00 0.00 51 1002.5
20260504224015 81 203 1.0 5.0 0.00 0.00 0.00 51 1002.5
20260504223035 82 0.0 2.0 0.00 0.00 0.00 51 1002.7
20260504222016 84 0.0 2.0 0.00 0.00 0.00 49 1002.7
20260504221016 84 0.0 2.0 0.00 0.00 0.00 49 1002.6
20260504220015 83 225 1.0 5.0 0.00 0.00 0.00 50 1002.8
20260504215015 84 225 1.0 6.0 0.00 0.00 0.00 47 1002.7
20260504214016 85 248 1.0 3.0 0.00 0.00 0.00 44 1002.8
20260504213016 84 225 1.0 4.0 0.00 0.00 0.00 46 1003.1
20260504212015 83 225 4.0 9.0 0.00 0.00 0.00 40 1003.0
20260504211016 84 248 3.0 6.0 0.00 0.00 0.00 41 1003.4
20260504210015 84 203 2.0 7.0 0.00 0.00 0.00 45 1003.4
20260504205015 83 203 1.0 5.0 0.00 0.00 0.00 48 1003.6
20260504204017 83 248 1.0 4.0 0.00 0.00 0.00 46 1003.8
20260504203015 83 225 2.0 5.0 0.00 0.00 0.00 45 1003.8
20260504202015 83 225 2.0 7.0 0.00 0.00 0.00 47 1003.8
20260504201015 82 158 1.0 5.0 0.00 0.00 0.00 46 1003.9
20260504200035 83 248 2.0 7.0 0.00 0.00 0.00 48 1004.0
20260504195016 83 225 2.0 5.0 0.00 0.00 0.00 46 1004.0
20260504194016 84 248 2.0 8.0 0.00 0.00 0.00 38 1003.9
20260504193015 83 225 1.0 5.0 0.00 0.00 0.00 42 1003.9
20260504192015 84 225 2.0 7.0 0.00 0.00 0.00 44 1004.0
20260504191015 84 203 2.0 7.0 0.00 0.00 0.00 47 1004.0
20260504190016 83 158 2.0 5.0 0.00 0.00 0.00 48 1004.1
20260504185015 82 248 4.0 7.0 0.00 0.00 0.00 45 1004.0
20260504184015 82 225 3.0 8.0 0.00 0.00 0.00 47 1003.9
20260504183015 82 225 3.0 7.0 0.00 0.00 0.00 51 1003.9
20260504182035 81 203 3.0 6.0 0.00 0.00 0.00 50 1004.0
20260504181015 81 225 3.0 7.0 0.00 0.00 0.00 49 1004.1
20260504180015 80 225 3.0 9.0 0.00 0.00 0.00 48 1004.1
20260504175035 80 203 3.0 9.0 0.00 0.00 0.00 51 1004.2
20260504174015 80 203 3.0 6.0 0.00 0.00 0.00 54 1004.2
20260504173015 79 225 5.0 8.0 0.00 0.00 0.00 50 1004.3
20260504172035 78 248 5.0 11.0 0.00 0.00 0.00 51 1004.5
20260504171015 78 225 4.0 11.0 0.00 0.00 0.00 51 1004.5
20260504151037 73 225 5.0 10.0 0.00 0.00 0.00 58 1004.6
20260504141017 70 203 2.0 5.0 0.00 0.00 0.00 64 1004.8
20260504081017 62 225 1.0 3.0 0.00 0.00 0.00 65 1005.7